Regional Weather Roundup
Issued by NWS

Current Version | Previous Version | Text Only | Print | Product List | Glossary On
Versions: 1 2 3 4 5 6 7 8 9 10 11 12 13 14 15 16 17 18 19 20 21 22 23 24 25 26 27 28 29 30 31 32 33 34 35 36 37 38 39 40 41 42 43 44 45 46 47 48 49 50
000
ASUS43 KLOT 241209
RWRIL

ILLINOIS REGIONAL WEATHER ROUNDUP
NATIONAL WEATHER SERVICE CHICAGO/ROMEOVILLE IL
700 AM CDT MON JUL 24 2017

NOTE: "FAIR" INDICATES FEW OR NO CLOUDS BELOW 12,000 FEET WITH NO
SIGNIFICANT WEATHER AND/OR OBSTRUCTIONS TO VISIBILITY.

* THESE STATIONS ARE NOT UNDER NWS QUALITY CONTROL. THEY ALSO MAY NOT
  REPORT WEATHER SUCH AS PRECIPITATION OR FOG.

ILZ001-002-007-009-015-016-024-241300-
NORTHWEST ILLINOIS

CITY           SKY/WX    TMP DP  RH WIND       PRES   REMARKS
MOLINE         PTSUNNY   69  64  84 NE10      29.98R
6HR MIN TEMP:  66; 6HR MAX TEMP:  71;

STERLING*      CLOUDY    67  64  90 E3        30.00R
SAVANNA*       CLOUDY    65  60  86 NE8       30.01R
$$

ILZ003-004-008-010-011-017-018-241300-
NORTH CENTRAL ILLINOIS

CITY           SKY/WX    TMP DP  RH WIND       PRES   REMARKS
ROCKFORD       PTSUNNY   66  59  78 NE14      30.02R
6HR MIN TEMP:  66; 6HR MAX TEMP:  70;

FREEPORT*      MOSUNNY   62  58  87 NE9       30.03R
ROCHELLE*      CLOUDY    65  62  89 NE10      30.00R
DE KALB*       CLOUDY    65  61  88 NE9       30.01R
PERU*          CLOUDY   N/A N/A N/A NE9       30.00R
$$

ILZ005-006-012>014-019>023-241300-
NORTHEAST ILLINOIS

CITY           SKY/WX    TMP DP  RH WIND       PRES   REMARKS
CHICAGO-OHARE  MOSUNNY   67  60  78 N10       29.98R
6HR MIN TEMP:  66; 6HR MAX TEMP:  70;

CHICAGO-MIDWAY MOSUNNY   69  60  73 N14       29.97R
6HR MIN TEMP:  68; 6HR MAX TEMP:  71;

AURORA         SUNNY     65  61  87 N8        30.00R
6HR MIN TEMP:  63; 6HR MAX TEMP:  69;

LANSING*       CLOUDY    68  58  70 N14G20    29.96S
JOLIET*        CLOUDY    68  64  85 N8        29.98R
WAUKEGAN       CLOUDY    64  61  90 N5        30.00R
6HR MIN TEMP:  62; 6HR MAX TEMP:  66;

DUPAGE AIRPORT SUNNY     64  62  93 N10       29.99R
6HR MIN TEMP:  62; 6HR MAX TEMP:  68;

WHEELING       MOSUNNY   65  63  93 N9        30.00R
6HR MIN TEMP:  65; 6HR MAX TEMP:  69;

MORRIS*        MOSUNNY   64  62  92 CALM      29.98R
ROMEOVILLE*    CLOUDY    66  60  79 NE7       29.98R
NORTHERLY ISL    N/A     68  59  73 MISG        N/A
$$

LMZ740>746-241300-
SOUTHERN LAKE MICHIGAN

STATION/POSITION SKY/WX   TEMP    WIND        PRES    VSBY  WAVE
                          AIR SEA DIR/SP/G                  HT/PER
                          (F)     (DEG/KT/KT) (MB)    (MI)  (FT/S)
SOUTHERN BUOY              67 70   10/ 17/ 21 1014.0          5/ 7
WILMETTE HARBOR            68 72  360/ 16/ 21   N/A           6/ 6
HARRISON CRIB              69     360/ 18/ 20   N/A
BURNHAM HARBOR             68                   N/A
CALUMET HARBOR             68     350/ 11/ 16 1014.4R
BURNS HARBOR               69     360/ 15/ 20 1014.9R
MICHIGAN CITY              69     340/ 19/ 23   N/A
MICHIGAN CITY 6N           69 74  360/ 14/ 19   N/A           6/ 6
ST. JOSEPH                 69 74   40/ 14/ 19 1014.3          5/ 6
$$

ILZ025>027-034>036-040-047-049-050-058-095>099-241300-
WEST-CENTRAL ILLINOIS

CITY           SKY/WX    TMP DP  RH WIND       PRES   REMARKS
QUINCY         SUNNY     67  63  87 N6        29.98R
GALESBURG*     PTSUNNY   63  63  99 NE6       30.00R
MACOMB*        SUNNY     64  63  96 N3        30.00R
JACKSONVILLE*  MOSUNNY   64  62  93 CALM      29.97R
PITTSFIELD*    MOSUNNY   68  64  88 N3        29.99R
$$

ILZ028>032-037-038-041>044-048-051>054-059>061-241300-
CENTRAL ILLINOIS

CITY           SKY/WX    TMP DP  RH WIND       PRES   REMARKS
PONTIAC        CLOUDY    67  67  98 NE7       29.98R
BLOOMINGTON    MOSUNNY   66  65  96 NE9       29.98R FOG
DECATUR        SUNNY     69  66  90 NE3       29.96R
PEORIA         PTSUNNY   68  67  96 NE8       29.97R
6HR MIN TEMP:  66; 6HR MAX TEMP:  70;

LACON*         CLOUDY    67  65  94 NE5       29.98R
LINCOLN*       SUNNY     68  66  94 N3        29.96R
SPRINGFIELD    PTSUNNY   70  66  87 N5        29.97R
6HR MIN TEMP:  68; 6HR MAX TEMP:  73;

TAYLORVILLE    MOSUNNY   67  66  98 CALM      29.96R
6HR MIN TEMP:  64; 6HR MAX TEMP:  71;

$$

ILZ033-039-045-046-055>057-062-063-241300-
EAST-CENTRAL ILLINOIS

CITY           SKY/WX    TMP DP  RH WIND       PRES   REMARKS
CHAMPAIGN      SUNNY     69  65  86 NE12      29.95R
RANTOUL*       SUNNY     69  67  94 NE13      29.96R FOG
MATTOON        MOSUNNY   69  67  93 CALM      29.95R
PARIS*         SUNNY     67  66  98 CALM      29.97R
$$

ILZ079-100>102-241300-
SOUTHWEST ILLINOIS

CITY           SKY/WX    TMP DP  RH WIND       PRES   REMARKS
ALTON          MOSUNNY   70  68  94 CALM      29.96R
BELLEVILLE     SUNNY     72  68  85 N7        29.95R
CAHOKIA*       SUNNY     75  67  76 N5        29.94R
SPARTA*        SUNNY     72  69  91 N5        29.94R
$$

ILZ064>066-069>071-074>076-080>082-084>086-088>090-092>094-241300-
SOUTH-CENTRAL ILLINOIS

CITY           SKY/WX    TMP DP  RH WIND       PRES   REMARKS
CARBONDALE     SUNNY     72  72 100 CALM      29.93R FOG
6HR MIN TEMP:  69; 6HR MAX TEMP:  74;

CAIRO*         CLOUDY    74  72  94 CALM      29.92R
EFFINGHAM*     SUNNY     71  71  99 NW3       29.96R
MARION         MOSUNNY   73  72  94 N3        29.93R
MT. VERNON     SUNNY     72  70  93 N3        29.93R
CENTRALIA*     SUNNY     73  71  95 N3        29.93R
SALEM*         SUNNY     72  70  93 CALM      29.94R FOG
METROPOLIS*    CLOUDY    73  72  96 CALM      29.94R
$$

ILZ067-068-072-073-078-083-087-091-241300-
SOUTHEAST ILLINOIS

CITY           SKY/WX    TMP DP  RH WIND       PRES   REMARKS
LAWRENCEVILLE  SUNNY     73  71  93 N5        29.92R
FLORA*         SUNNY     74  71  93 N3        29.93R
FAIRFIELD*     SUNNY     73  71  95 CALM      29.92R
HARRISBURG*    CLOUDY    71  71  99 CALM      29.93R
ROBINSON*      MOSUNNY   70  69  97 CALM      29.94R
CARMI*         SUNNY     70  70  99 CALM      29.92R
$$

ABBREVIATIONS USED IN REMARKS
   TC - TEMPERATURE IN CELSIUS
  WCI - WIND CHILL INDEX
   HX - HEAT INDEX
  VSB - VISIBILITY
$$





USA.gov is the U.S. government's official web portal to all federal, state and local government web resources and services.